Wetbulb
72.80 72.31 72.73 71.45 70.28 70.37 70.01 69.34 67.11 65.38 65.21 70.10 70.00 73.26 73.66 72.47 72.72 71.39 70.03 70.20 69.54 69.23 68.81 68.99 69.40 70.16 70.53 70.98 71.20 71.67 72.20 72.41 72.76 73.60 73.29 73.38 73.64 73.73
72.22 72.16 72.27 71.92 71.76 70.48 69.81 70.31 71.91 66.77 64.84 70.65 69.78 72.54 73.68 73.49 73.30 70.94 69.27 69.51 69.01 68.55 68.31 68.06 68.26 68.89 69.29 69.51 69.74 70.29 70.83 71.16 71.46 71.62 71.36 71.49 71.88 72.62
71.46 71.78 71.81 71.95 71.87 71.59 71.57 69.52 68.13 68.95 67.45 70.09 71.85 72.68 73.21 71.97 72.19 69.78 69.38 67.27 67.67 67.93 67.66 67.19 67.15 67.66 67.95 68.09 68.20 68.56 69.23 69.55 69.70 70.23 70.30 70.81 70.97 70.85
70.63 72.05 72.18 73.75 71.36 72.09 71.69 70.66 71.26 70.95 68.78 66.71 69.14 71.30 71.82 72.04 71.77 68.90 68.91 69.54 66.66 67.37 66.71 66.13 65.79 66.04 65.92 66.10 66.35 66.57 66.64 67.22 67.65 68.20 69.23 69.50 69.62 69.50
72.85 72.87 72.74 72.66 71.23 72.10 71.04 71.06 70.40 72.26 70.98 68.63 68.14 70.77 71.40 72.85 72.02 71.54 71.04 68.70 68.08 67.27 65.52 64.83 64.70 64.74 64.45 63.99 63.74 63.39 62.92 63.46 64.17 64.94 65.78 66.84 67.58 68.36
73.09 73.60 73.47 72.82 72.11 72.13 71.33 71.01 71.33 69.80 70.34 69.70 69.45 68.63 70.11 71.69 71.59 69.56 68.46 69.18 64.45 66.30 65.81 64.09 64.10 64.39 64.02 62.58 62.29 61.82 60.02 60.07 60.65 61.68 62.59 63.74 64.85 65.78
72.99 73.34 73.15 73.57 73.45 72.68 72.60 71.11 70.54 70.15 69.73 69.10 68.90 68.34 67.76 69.47 69.49 69.47 69.41 69.22 68.86 65.81 63.41 62.32 62.01 62.24 62.70 62.92 62.80 63.67 60.94 60.21 59.40 59.68 60.20 60.64 61.09 62.26
71.87 72.84 72.88 72.22 72.03 70.20 69.39 69.83 71.53 69.65 68.26 68.10 67.67 67.74 67.73 68.77 70.48 69.83 68.32 66.62 66.28 68.82 67.38 63.14 62.36 61.26 61.86 61.68 62.52 62.68 61.17 60.18 59.63 59.35 59.03 59.33 59.55 59.67
71.85 71.93 72.60 73.87 70.91 71.83 70.32 67.54 67.17 67.60 69.04 69.57 68.27 68.26 68.83 69.50 69.55 68.86 68.71 67.17 66.22 66.79 67.95 66.28 63.78 63.00 63.69 62.65 62.11 61.70 60.34 59.62 58.93 58.73 58.40 58.00 57.62 57.12
71.38 71.52 71.37 71.12 71.28 71.52 71.16 71.03 70.81 70.39 69.56 69.24 69.10 69.98 69.90 70.58 70.35 70.20 69.97 69.22 68.23 68.59 68.43 65.10 65.41 64.29 60.00 59.75 62.13 61.46 59.61 58.44 57.80 57.48 57.18 56.17 55.02 54.62
70.81 70.46 70.81 70.99 68.60 66.10 68.94 69.62 69.87 70.98 70.13 65.97 66.88 66.05 65.35 65.03 67.47 69.29 69.09 68.30 68.52 69.75 67.94 67.24 66.54 66.13 57.18 54.93 57.37 60.28 58.25 56.50 55.97 56.20 56.07 54.90 53.01 52.85
70.04 69.98 63.41 65.06 61.50 60.98 68.27 68.68 68.52 68.39 69.16 69.58 70.90 69.62 65.55 67.42 65.52 68.41 69.70 68.37 67.60 66.49 68.18 66.97 63.10 60.18 59.64 57.88 54.70 55.81 55.49 54.41 53.64 53.72 54.15 53.02 51.31 51.69
68.70 68.50 64.33 60.94 59.16 57.90 59.71 66.40 66.51 63.21 65.75 66.88 67.98 69.04 69.90 70.06 70.26 67.85 68.46 69.41 68.68 68.52 68.86 68.05 64.05 59.42 60.68 57.31 57.51 55.71 54.10 53.53 53.67 52.61 51.88 50.95 49.63 49.97
67.03 67.21 63.07 59.53 58.08 57.35 58.72 59.89 56.61 58.74 63.56 65.00 65.30 65.75 66.81 67.26 67.64 66.67 65.52 65.20 65.24 65.26 64.65 68.39 67.62 63.99 62.36 56.53 54.35 54.21 52.90 51.44 51.57 51.22 51.11 50.34 49.57 49.84
64.73 62.48 59.89 56.08 55.00 57.90 58.03 57.31 59.53 63.62 64.10 64.12 64.14 64.59 63.00 63.82 63.20 63.09 64.40 62.98 62.55 62.61 63.37 64.47 64.92 65.74 63.61 58.56 52.38 50.17 48.70 49.79 51.09 50.46 50.10 49.39 49.09 48.98
62.23 62.11 61.06 61.23 60.30 60.47 62.14 61.02 61.47 60.48 60.87 59.48 59.32 59.70 58.88 58.09 57.23 57.53 58.18 58.26 58.34 58.90 58.93 61.45 63.11 61.92 58.50 57.09 54.00 49.95 50.44 47.80 50.10 50.36 49.78 49.39 49.61 49.28
55.56 63.38 62.54 60.99 59.98 58.84 58.45 58.67 58.87 58.10 57.19 57.31 56.59 55.78 55.58 55.20 55.04 56.79 56.47 56.47 55.82 55.28 55.78 58.52 58.80 58.88 58.46 56.15 52.72 52.25 50.62 49.63 50.91 51.43 51.51 50.09 51.00 50.59
60.49 60.66 59.96 59.11 57.51 56.35 57.53 57.90 57.55 57.32 56.95 55.06 54.92 54.24 52.36 51.82 53.25 54.07 53.86 53.27 52.72 52.90 53.45 56.39 56.71 56.29 56.23 56.77 56.94 52.25 54.16 50.78 51.99 53.52 53.68 52.78 53.15 55.07
59.85 59.87 59.76 59.43 57.89 56.59 56.05 55.33 54.47 54.96 55.15 53.52 54.36 51.99 50.91 51.81 50.78 50.29 51.18 52.31 52.10 52.65 53.43 54.92 55.94 55.34 53.45 51.76 55.48 56.45 55.00 52.73 53.09 53.47 53.98 54.87 55.43 56.49
58.86 60.14 60.88 60.43 59.41 57.99 56.91 56.13 55.57 55.47 54.15 53.35 52.08 51.34 50.80 50.20 49.57 48.90 48.92 51.48 52.16 52.77 53.30 54.20 54.26 52.72 51.39 51.66 54.74 55.42 53.73 55.71 53.58 53.08 54.31 56.25 57.84 54.77
61.18 61.55 61.36 62.19 61.07 59.97 58.97 58.01 57.15 55.89 55.05 54.13 53.35 52.45 51.98 50.70 49.04 48.75 48.55 48.89 49.43 51.38 52.00 51.94 53.26 55.23 54.14 53.94 53.89 54.76 56.59 54.16 56.97 57.69 56.56 55.49 51.62 47.39
62.19 61.86 61.53 63.28 63.01 61.37 60.45 58.93 57.53 56.19 56.41 55.43 55.17 54.07 52.95 51.71 50.06 49.18 49.06 48.03 47.97 48.62 48.75 50.86 53.35 53.43 52.57 51.53 50.42 53.08 54.82 53.55 53.07 53.92 55.63 55.41 50.17 46.97
61.46 62.01 62.31 63.86 63.09 61.58 61.71 61.34 60.12 59.84 59.31 58.39 57.90 54.94 54.13 53.05 52.16 50.94 50.64 50.14 49.37 48.79 48.76 47.79 48.52 49.04 49.27 51.08 51.75 52.46 53.25 52.93 51.33 49.62 49.48 52.52 53.83 54.71
MSLP
1016.93 1017.14 1017.23 1017.02 1016.87 1016.81 1017.15 1017.08 1017.19 1017.63 1017.56 1017.27 1017.10 1016.51 1016.80 1017.14 1017.40 1017.72 1018.05 1018.37 1018.68 1018.94 1019.21 1019.30 1019.41 1019.41 1019.36 1019.31 1019.28 1019.17 1019.10 1019.06 1019.00 1019.04 1019.21 1019.31 1019.39 1019.48
1016.63 1016.91 1017.00 1017.04 1016.80 1016.68 1016.57 1016.42 1016.39 1017.03 1017.22 1016.91 1016.81 1016.72 1016.81 1017.29 1017.47 1017.68 1018.01 1018.39 1018.62 1018.78 1019.04 1019.07 1019.14 1019.21 1019.21 1019.19 1019.15 1019.08 1019.02 1018.97 1018.89 1018.91 1019.03 1019.06 1019.04 1019.20
1016.55 1016.60 1016.68 1016.64 1016.45 1016.58 1016.20 1016.56 1016.42 1016.76 1016.89 1016.37 1016.38 1016.55 1016.93 1017.11 1017.44 1017.65 1017.90 1018.20 1018.40 1018.59 1018.70 1018.69 1018.78 1018.88 1018.96 1019.05 1019.03 1018.96 1018.90 1018.89 1018.90 1018.91 1018.97 1019.02 1019.14 1019.30
1016.43 1016.45 1016.60 1016.44 1016.39 1016.21 1015.99 1016.18 1016.45 1016.41 1016.61 1016.70 1016.58 1016.55 1016.54 1016.79 1016.91 1017.50 1017.73 1017.82 1018.11 1018.24 1018.26 1018.38 1018.48 1018.57 1018.68 1018.81 1018.84 1018.83 1018.79 1018.76 1018.78 1018.82 1018.82 1018.89 1019.09 1019.28
1015.88 1016.02 1016.02 1016.08 1016.34 1016.30 1016.36 1016.36 1016.32 1016.06 1016.09 1016.45 1016.59 1016.35 1016.35 1016.58 1017.08 1017.27 1017.48 1017.38 1017.56 1017.70 1017.97 1018.16 1018.25 1018.25 1018.36 1018.53 1018.60 1018.64 1018.60 1018.58 1018.60 1018.67 1018.75 1018.82 1019.00 1019.27
1015.21 1015.35 1015.50 1015.59 1015.70 1015.77 1015.89 1015.98 1015.86 1015.89 1015.94 1016.20 1016.20 1016.22 1016.26 1016.17 1016.47 1017.03 1017.37 1017.45 1017.53 1017.44 1017.57 1017.68 1017.87 1018.01 1018.12 1018.28 1018.45 1018.57 1018.63 1018.64 1018.65 1018.62 1018.62 1018.79 1018.97 1019.16
1014.84 1014.95 1015.00 1015.01 1015.02 1015.01 1015.18 1015.28 1015.46 1015.68 1015.76 1015.90 1016.12 1016.19 1016.23 1016.17 1016.38 1016.47 1016.73 1016.89 1016.96 1016.88 1017.27 1017.56 1017.70 1017.72 1017.83 1017.99 1018.07 1018.07 1018.21 1018.34 1018.54 1018.67 1018.73 1018.93 1019.22 1019.44
1014.40 1014.33 1014.35 1014.49 1014.49 1014.50 1014.51 1014.52 1014.61 1015.04 1015.17 1015.56 1015.70 1015.72 1015.66 1015.56 1015.64 1015.85 1016.15 1016.60 1016.82 1016.03 1016.47 1016.77 1016.99 1017.19 1017.22 1017.40 1017.46 1017.79 1018.11 1018.21 1018.35 1018.56 1018.77 1018.96 1019.19 1019.55
1013.73 1013.88 1013.96 1013.97 1014.03 1014.04 1014.02 1014.01 1014.19 1014.49 1014.38 1014.70 1014.90 1014.83 1014.87 1014.82 1014.94 1015.14 1015.33 1015.54 1015.59 1015.35 1015.77 1016.11 1016.34 1016.40 1016.22 1016.40 1016.64 1017.06 1017.59 1018.02 1018.21 1018.38 1018.64 1018.91 1019.28 1019.49
1013.17 1013.28 1013.52 1013.64 1013.70 1013.81 1013.88 1013.84 1013.79 1013.82 1013.73 1013.92 1014.08 1013.90 1013.91 1013.88 1014.26 1014.32 1014.37 1014.62 1014.76 1014.90 1014.99 1015.46 1015.33 1015.46 1015.63 1015.77 1015.85 1016.42 1016.87 1017.33 1017.80 1018.16 1018.38 1018.59 1018.90 1019.28
1012.74 1013.05 1013.08 1013.11 1013.12 1013.32 1013.69 1013.81 1013.70 1013.42 1012.89 1013.05 1013.01 1012.97 1013.09 1013.32 1013.57 1014.10 1014.17 1014.50 1014.40 1014.12 1014.32 1014.44 1014.23 1014.71 1015.30 1015.65 1015.70 1015.81 1016.26 1016.71 1017.10 1017.43 1017.96 1018.33 1018.57 1019.11
1012.25 1012.44 1012.57 1012.74 1013.06 1013.32 1013.40 1013.59 1013.63 1013.48 1013.25 1012.99 1012.94 1013.09 1012.95 1012.78 1012.91 1013.10 1013.29 1013.63 1013.62 1013.33 1012.97 1013.72 1013.77 1014.27 1015.03 1014.96 1015.40 1015.82 1016.28 1016.59 1016.82 1017.20 1017.65 1018.38 1018.86 1019.13
1012.26 1012.33 1012.87 1013.05 1013.32 1013.34 1013.39 1013.66 1013.74 1013.70 1013.54 1013.44 1013.22 1013.04 1012.82 1012.61 1012.55 1012.57 1012.50 1012.67 1012.79 1012.49 1011.97 1012.54 1012.73 1013.33 1013.77 1014.38 1015.10 1015.50 1015.89 1016.51 1017.05 1017.18 1017.68 1018.84 1019.08 1019.26
1012.28 1012.27 1012.86 1013.07 1013.26 1013.43 1013.58 1013.72 1013.59 1013.56 1013.54 1013.46 1013.42 1013.33 1013.15 1013.04 1013.08 1012.91 1012.66 1012.59 1012.54 1012.50 1012.30 1012.04 1011.71 1011.58 1011.66 1013.07 1014.10 1014.76 1015.59 1016.28 1016.86 1017.51 1018.47 1018.58 1019.48 1019.71
1012.29 1012.36 1012.54 1012.70 1012.97 1013.32 1013.56 1013.67 1013.70 1013.77 1013.76 1013.83 1013.79 1013.70 1013.75 1013.63 1013.25 1012.85 1012.52 1012.50 1012.34 1012.17 1012.14 1011.93 1011.85 1011.74 1012.39 1013.26 1013.94 1015.05 1016.40 1015.89 1016.16 1017.02 1018.32 1019.24 1019.40 1019.59
1012.19 1012.34 1012.62 1012.81 1013.12 1013.40 1013.73 1013.97 1014.20 1014.38 1014.33 1014.34 1014.34 1014.26 1014.12 1013.90 1013.56 1013.31 1012.97 1012.81 1012.59 1012.27 1012.12 1011.76 1011.43 1011.49 1012.05 1012.14 1012.97 1014.20 1014.54 1015.67 1016.44 1016.94 1017.89 1018.58 1019.07 1019.28
1012.50 1012.49 1012.85 1013.25 1013.66 1014.01 1014.23 1014.43 1014.58 1014.63 1014.63 1014.66 1014.60 1014.49 1014.36 1014.11 1013.91 1013.68 1013.41 1013.18 1013.14 1012.84 1012.55 1012.27 1011.97 1011.83 1011.99 1012.24 1013.11 1013.57 1014.38 1015.14 1015.92 1016.48 1017.62 1018.07 1018.53 1018.61
1012.57 1012.71 1013.06 1013.42 1013.93 1014.17 1014.40 1014.68 1014.71 1014.78 1014.87 1014.96 1015.00 1014.99 1014.89 1014.68 1014.53 1014.25 1013.98 1013.78 1013.73 1013.56 1013.19 1012.85 1012.74 1012.76 1012.68 1013.22 1013.16 1013.69 1014.26 1015.08 1015.46 1016.37 1017.21 1017.62 1017.91 1017.51
1012.55 1012.61 1012.70 1013.04 1013.52 1013.86 1014.25 1014.57 1014.74 1014.85 1014.93 1015.13 1015.15 1015.20 1015.09 1014.99 1014.90 1014.81 1014.75 1014.55 1014.17 1013.83 1013.70 1013.55 1013.39 1013.16 1013.22 1013.34 1013.71 1013.75 1014.20 1015.23 1015.92 1016.47 1017.02 1017.15 1017.01 1016.93
1012.28 1012.20 1012.41 1012.56 1012.99 1013.38 1013.87 1014.19 1014.53 1014.72 1014.85 1014.99 1015.07 1015.09 1015.15 1015.23 1015.26 1015.32 1015.21 1015.09 1014.90 1014.55 1014.15 1014.00 1014.09 1014.37 1014.38 1014.32 1014.10 1014.26 1014.59 1014.88 1015.62 1016.20 1016.72 1016.83 1016.58 1016.27
1011.72 1011.72 1011.63 1011.92 1012.44 1012.91 1013.28 1013.74 1014.05 1014.49 1014.71 1014.88 1014.94 1014.99 1015.04 1015.14 1015.31 1015.43 1015.51 1015.45 1015.31 1015.09 1015.01 1014.61 1014.46 1014.41 1014.60 1014.58 1014.63 1014.75 1014.75 1014.81 1015.09 1015.46 1015.74 1016.06 1016.23 1016.17
1011.32 1011.35 1011.29 1011.33 1011.61 1012.27 1012.77 1013.23 1013.62 1014.07 1014.34 1014.46 1014.53 1014.57 1014.67 1014.85 1015.09 1015.25 1015.44 1015.60 1015.62 1015.41 1015.28 1015.24 1015.08 1014.93 1014.92 1014.94 1014.96 1014.74 1014.60 1014.71 1014.85 1014.92 1014.90 1014.64 1014.91 1015.21
1011.22 1011.21 1011.10 1011.17 1011.45 1011.82 1012.22 1012.62 1012.79 1013.25 1013.49 1013.78 1013.89 1013.82 1014.11 1014.58 1014.62 1014.73 1015.00 1015.25 1015.39 1015.48 1015.43 1015.30 1015.26 1015.18 1015.07 1014.94 1014.63 1014.41 1014.47 1014.58 1014.54 1014.79 1014.48 1014.16 1014.15 1014.15
Wind_Speed
3 2 4 1 1 2 2 2 4 2 2 4 2 1 5 6 7 5 5 10 10 10 9 8 6 5 3 1 1 1 2 5 9 9 9 8 9 10
2 2 2 2 3 0 3 2 2 3 2 3 2 2 6 5 9 6 7 11 10 11 10 9 7 5 4 3 2 1 1 1 3 5 5 5 7 9
3 3 3 2 3 2 2 1 2 1 2 2 2 5 4 6 5 4 8 6 6 12 12 11 9 7 6 5 4 4 3 4 5 6 6 7 9 10
6 4 5 3 2 3 2 2 2 3 2 1 2 3 4 5 8 8 7 7 6 11 12 11 10 9 8 7 7 6 6 6 6 6 8 10 11 12
6 6 6 5 4 3 3 3 2 0 0 2 3 2 1 3 3 3 4 2 5 10 10 9 10 10 10 9 9 8 8 7 7 8 8 9 12 12
6 6 6 7 7 6 4 5 4 2 2 2 2 3 2 3 3 3 2 2 3 5 8 9 10 10 10 10 10 9 7 8 7 8 9 11 12 13
7 6 6 7 11 9 4 5 5 3 3 2 2 1 2 2 5 4 5 3 4 4 4 4 4 5 6 10 10 13 11 10 9 8 9 10 10 10
7 7 7 7 7 9 10 11 7 5 4 3 3 4 4 4 3 4 4 3 3 5 6 6 6 6 7 7 13 12 12 10 10 10 10 10 10 9
7 7 6 5 8 5 8 9 8 10 8 5 6 6 4 6 4 4 5 5 5 3 6 7 7 8 7 8 16 15 13 12 11 10 10 10 9 10
7 7 7 7 7 6 5 6 6 6 7 6 8 10 8 7 6 6 6 6 2 2 5 5 5 7 4 3 17 18 17 14 12 11 12 12 12 11
5 6 6 7 9 9 5 6 6 5 7 11 12 12 12 10 7 1 4 5 6 6 8 5 5 5 3 3 4 16 16 15 14 14 12 12 12 11
6 6 4 2 5 5 2 2 4 3 4 5 5 5 7 8 11 8 6 7 5 3 6 8 3 4 3 3 5 5 5 10 12 12 11 9 8 5
4 2 3 7 8 6 6 2 0 2 5 4 5 5 5 5 4 4 6 7 7 9 4 7 5 4 3 3 3 5 7 5 2 7 13 6 9 6
2 3 6 7 4 1 2 4 5 3 3 3 3 4 4 3 5 3 4 3 3 4 4 7 4 8 8 6 4 4 6 6 6 6 4 5 6 2
3 4 5 3 1 1 3 4 4 4 4 3 3 3 2 3 4 3 3 2 3 3 4 4 4 1 1 2 4 6 1 5 6 8 6 5 4 3
1 4 5 6 6 6 6 6 5 4 4 3 3 3 3 3 3 3 2 3 2 2 3 4 4 5 3 3 5 6 5 6 8 7 7 6 5 6
3 3 3 4 4 4 4 5 4 4 4 3 3 3 3 4 3 4 2 2 2 4 3 3 5 6 5 5 3 5 7 4 7 8 7 6 5 6
2 3 3 4 5 4 4 3 3 4 3 3 3 2 3 3 3 3 3 3 3 4 3 3 2 2 3 6 6 6 5 5 7 8 5 4 4 7
2 2 5 5 5 5 5 3 2 2 3 3 2 3 3 3 3 3 3 3 4 4 4 3 3 3 3 4 2 10 5 6 6 6 5 5 4 7
3 3 4 5 5 5 5 4 3 3 3 2 2 2 1 2 3 3 3 3 3 3 6 6 6 7 5 4 1 3 2 7 6 6 6 5 5 5
3 3 3 5 5 5 5 4 5 4 4 3 2 2 2 2 1 2 2 3 3 2 4 3 3 5 2 3 4 1 3 9 5 6 6 6 3 1
3 4 4 4 6 6 5 5 5 4 4 4 3 3 3 3 2 3 2 1 1 1 1 2 3 2 1 3 2 3 3 2 7 11 10 11 6 4
2 1 2 3 4 5 6 6 6 6 6 6 5 5 5 3 4 4 4 5 4 3 3 2 2 2 3 3 5 3 3 4 3 3 4 9 8 4
Wind_Direction
220 253 259 262 206 236 89 275 145 173 251 3 251 129 136 150 170 154 150 175 174 175 187 191 197 209 210 217 320 286 258 250 239 229 218 226 235 239
137 343 325 154 211 304 221 16 25 155 171 204 241 161 156 164 166 164 167 171 178 185 194 192 193 202 209 211 201 183 203 194 159 173 192 225 225 153
267 256 261 274 278 154 208 200 294 100 172 316 172 190 160 156 160 143 157 169 185 197 197 194 194 200 207 207 203 198 183 163 163 167 160 147 139 136
246 244 247 255 265 270 273 287 239 240 128 264 252 167 173 182 165 163 181 191 187 202 199 198 198 199 206 210 208 204 199 193 188 181 174 163 151 147
238 227 233 235 249 236 218 268 264 284 100 172 264 218 182 145 169 184 184 188 182 183 190 200 208 209 209 209 207 209 201 189 188 190 178 165 153 145
244 241 232 223 233 239 231 230 249 258 257 242 259 237 189 203 150 180 209 188 183 189 203 199 204 213 213 213 212 212 202 194 191 183 171 164 156 152
234 245 237 220 221 219 202 235 225 213 215 238 276 295 244 169 195 189 200 204 229 173 192 205 192 203 213 215 219 213 204 195 190 183 162 156 157 156
228 236 240 253 258 240 235 231 195 193 205 195 227 221 224 218 189 186 178 171 249 216 195 220 184 203 205 204 208 209 206 197 182 178 173 167 164 163
216 215 230 234 251 262 274 234 224 243 216 195 229 237 233 214 195 208 189 186 211 224 192 239 186 222 203 203 195 192 188 190 185 178 173 169 167 160
238 214 210 226 243 240 276 278 248 239 222 221 222 248 238 247 207 211 212 218 242 192 170 222 189 217 170 196 190 185 183 180 179 178 176 169 168 166
222 234 215 226 232 221 208 247 268 264 238 227 221 232 246 256 243 265 240 209 239 229 198 216 192 198 146 175 181 180 177 176 175 176 179 177 163 161
228 235 97 150 110 75 228 266 282 308 349 337 322 299 261 248 238 219 226 232 229 267 193 206 202 152 197 175 173 172 178 183 181 178 172 149 155 143
227 200 109 114 86 80 72 56 235 326 308 297 292 292 289 282 275 240 224 226 235 247 208 187 189 183 236 138 166 182 177 158 168 144 134 148 170 132
26 106 132 164 149 289 336 303 313 312 288 292 293 293 307 14 11 23 31 348 319 290 325 260 264 212 195 166 173 138 144 135 132 135 131 158 196 224
120 141 162 153 180 215 173 48 52 37 20 13 7 12 8 327 317 337 303 320 283 275 287 267 283 247 200 156 162 142 170 179 158 155 152 178 164 176
302 153 168 134 86 64 72 60 59 35 28 21 358 343 338 339 352 338 329 340 299 301 338 315 242 150 158 171 145 158 152 160 168 154 156 177 190 220
322 91 83 80 76 59 58 58 49 44 40 27 22 10 0 357 358 343 350 336 326 336 337 357 41 56 52 116 99 138 156 125 157 146 164 177 201 214
102 124 114 116 116 111 88 88 76 68 65 47 34 24 19 15 360 352 7 27 24 2 355 4 27 53 85 64 74 142 130 133 153 151 156 170 218 218
111 170 151 147 146 135 131 128 128 129 108 93 82 50 44 31 21 14 12 14 47 47 26 11 14 45 45 86 62 51 91 137 141 148 189 202 208 226
211 196 182 163 155 151 150 148 141 130 122 136 121 120 90 64 38 33 29 23 16 34 66 54 49 38 34 7 28 79 102 130 159 172 200 223 251 281
217 194 155 160 153 151 150 150 146 155 165 170 188 195 196 126 88 74 52 33 27 26 62 77 96 76 38 357 27 77 203 222 209 179 196 197 211 249
256 177 180 169 150 154 153 163 152 168 174 183 198 185 186 161 175 163 152 152 331 21 356 344 345 27 94 144 235 245 204 209 226 235 222 174 164 198
199 262 210 174 148 162 165 176 170 186 186 192 200 191 186 204 210 204 190 191 211 228 237 247 266 242 246 226 220 194 182 193 193 224 268 218 221 202